This is the latest recevied weather packets stored in our database for station/object YF9UAG-17. If no packets are shown the sender has not sent any weather packets the latest 10 day(s).
| Time | Temp. | Humidity | Pressure | Rain* | Wind** | Luminosity | Snow |
|---|---|---|---|---|---|---|---|
| 1787878428 | 26.67° C | 46% | 1034.9 hPa | - | - | - | - |
| 1787877826 | 26.67° C | 44% | 1034.9 hPa | - | - | - | - |
| 1787877224 | 26.11° C | 46% | 1034.8 hPa | - | - | - | - |
| 1787876622 | 26.67° C | 45% | 1034.8 hPa | - | - | - | - |
| 1787876019 | 26.11° C | 45% | 1034.6 hPa | - | - | - | - |
| 1787875417 | 25.56° C | 46% | 1034.5 hPa | - | - | - | - |
| 1787874815 | 25.56° C | 45% | 1034.6 hPa | - | - | - | - |
| 1787874213 | 25.56° C | 45% | 1034.6 hPa | - | - | - | - |
| 1787873610 | 25.56° C | 45% | 1034.6 hPa | - | - | - | - |
| 1787873008 | 25.56° C | 46% | 1034.5 hPa | - | - | - | - |
| 1787872406 | 25.56° C | 46% | 1034.3 hPa | - | - | - | - |
| 1787871803 | 25.56° C | 46% | 1034.1 hPa | - | - | - | - |
| 1787871201 | 25° C | 45% | 1033.9 hPa | - | - | - | - |
| 1787870599 | 25.56° C | 44% | 1033.9 hPa | - | - | - | - |
| 1787869996 | 25.56° C | 43% | 1033.9 hPa | - | - | - | - |
| 1787869394 | 26.11° C | 42% | 1033.8 hPa | - | - | - | - |
| 1787868792 | 26.67° C | 42% | 1033.7 hPa | - | - | - | - |
| 1787868190 | 26.11° C | 42% | 1033.7 hPa | - | - | - | - |
| 1787867587 | 26.67° C | 42% | 1033.6 hPa | - | - | - | - |
| 1787866985 | 26.67° C | 42% | 1033.5 hPa | - | - | - | - |
| 1787866383 | 26.67° C | 42% | 1033.4 hPa | - | - | - | - |
| 1787865780 | 26.67° C | 43% | 1033.4 hPa | - | - | - | - |
| 1787865178 | 26.67° C | 42% | 1033.5 hPa | - | - | - | - |
| 1787864576 | 27.22° C | 42% | 1033.3 hPa | - | - | - | - |
| 1787863974 | 27.22° C | 42% | 1033.4 hPa | - | - | - | - |
* Rain since midnight (hover to see other rain measurements)
** Current wind speed in m/s (hover to see current wind gust speed)